Wind_Speed
12 12 12 12 12 12 12 12 12 12 12 12 12 13 13 13 13 13 12 12 13 14 14 14 14 15 15 16 16 17 16 16 17 17 17 18 19 19
11 11 12 12 13 13 13 13 13 13 13 14 14 15 15 15 14 14 14 14 15 15 16 16 16 16 17 18 18 19 18 18 19 19 19 19 20 21
12 12 12 13 13 13 13 14 15 15 15 16 16 16 17 17 16 16 16 16 17 17 18 18 18 19 19 20 20 21 21 20 21 21 21 21 21 22
12 12 13 13 14 14 15 15 16 16 17 17 18 18 18 18 18 18 18 18 18 19 19 20 20 21 21 22 22 22 22 23 23 24 24 24 24 24
13 13 14 15 15 16 16 17 18 18 18 19 19 19 19 19 19 20 20 20 20 21 21 21 22 23 23 23 24 25 25 25 26 26 27 27 27 28
14 14 15 16 16 17 18 18 19 19 20 21 21 21 21 21 21 22 22 22 23 23 23 23 23 24 25 25 26 27 27 28 28 28 29 29 30 30
16 16 17 18 19 19 20 20 21 21 21 22 23 23 23 24 24 24 24 25 25 26 26 26 26 27 27 28 28 29 29 30 30 30 31 31 32 33
17 17 18 19 20 21 21 22 23 23 23 23 24 24 24 25 25 25 26 27 28 28 29 29 30 29 29 29 30 31 31 31 32 33 33 34 34 35
18 19 20 20 21 22 22 23 24 24 25 25 26 26 26 26 27 27 28 29 29 30 30 31 31 32 32 32 32 32 33 33 34 35 35 36 37 37
19 20 21 22 22 22 23 24 24 25 25 26 26 26 27 28 29 29 29 30 30 31 31 32 32 32 33 33 33 33 34 35 35 36 37 38 39 39
21 21 21 22 22 24 25 25 26 27 27 27 28 28 29 29 30 31 32 32 31 31 32 32 33 33 34 34 35 36 36 37 38 38 39 40 41 41
21 22 23 23 24 25 26 26 27 28 28 29 29 29 30 30 31 32 33 33 33 33 33 34 34 34 34 35 36 38 38 39 39 40 40 41 42 42
22 23 24 25 25 26 27 27 28 29 29 29 30 31 31 32 33 34 34 33 33 34 35 35 35 35 36 36 37 38 40 40 41 42 43 43 44 44
23 24 24 25 26 27 27 28 28 29 30 31 32 32 33 33 34 34 34 34 34 35 35 36 36 37 38 38 39 40 41 41 41 42 43 43 44 45
24 25 25 26 26 26 27 28 29 30 31 32 32 33 33 34 34 34 34 35 35 35 35 35 36 37 38 39 39 40 41 42 42 42 43 43 44 44
25 25 26 27 27 28 29 30 31 31 32 33 33 34 35 35 35 36 36 35 36 36 36 36 36 37 38 39 40 41 41 42 42 43 44 44 44 44
26 26 27 28 29 29 30 31 32 32 33 33 34 34 34 34 35 35 35 36 36 36 36 36 37 38 39 40 40 42 43 43 42 42 43 43 43 43
27 28 28 28 29 29 30 31 32 33 33 33 33 34 34 35 35 35 35 36 36 37 37 37 39 40 41 41 42 43 43 43 43 43 43 43 43 43
28 28 28 29 30 30 31 31 32 32 33 33 34 34 34 34 35 36 37 37 38 37 38 38 39 40 41 41 41 42 42 42 42 43 43 43 44 43
27 27 28 29 30 31 32 32 32 32 33 33 34 34 35 36 36 37 37 38 37 37 38 39 39 40 40 41 41 41 42 42 43 43 43 43 43 44
29 29 29 30 31 32 33 33 33 33 34 34 34 35 36 37 37 38 39 39 39 39 40 40 40 40 41 41 41 42 42 43 43 43 43 43 43 42
30 31 32 32 33 33 33 34 34 34 35 35 36 37 37 38 40 40 40 40 40 41 41 41 41 42 42 42 42 43 42 42 42 42 42 43 43 42
30 32 32 33 33 34 34 35 35 36 37 37 38 39 40 40 41 41 41 41 41 41 41 41 41 41 42 42 42 42 42 41 40 40 41 41 41 40
Wind_Direction
284 279 279 283 285 282 281 283 286 288 288 289 290 291 291 292 293 292 292 290 289 289 289 287 285 285 284 284 285 288 286 285 284 283 280 276 274 273
284 281 282 283 285 286 285 284 286 289 288 288 289 289 291 290 290 290 290 290 290 289 288 289 288 286 285 285 285 287 284 283 282 282 282 281 278 276
282 280 282 283 285 287 288 290 292 290 290 290 290 289 291 289 289 290 290 289 287 286 286 286 286 286 286 285 284 285 283 282 280 280 280 281 279 278
281 278 281 284 287 289 290 291 293 293 292 293 293 292 292 289 289 290 289 288 287 286 285 285 285 286 286 285 283 283 282 281 279 279 278 279 279 279
283 282 282 284 286 289 292 291 292 293 293 293 292 292 291 289 288 290 290 288 286 286 285 284 285 285 285 286 285 283 283 282 280 279 278 278 278 278
283 283 284 284 285 286 290 291 290 292 292 291 291 292 292 290 289 289 290 289 287 286 285 284 284 284 284 285 285 285 283 282 280 279 279 279 278 278
283 284 286 285 286 286 288 289 289 290 290 290 291 291 291 291 290 288 287 287 286 285 284 284 284 284 285 285 284 286 284 282 281 279 279 279 280 280
284 285 286 285 285 287 288 288 290 290 292 293 293 291 292 292 291 289 287 288 288 286 286 285 285 284 284 285 285 285 284 282 281 280 280 280 280 280
288 288 289 288 286 287 289 291 292 291 291 292 294 293 293 294 293 293 291 290 290 289 286 287 287 286 285 285 284 285 282 282 282 281 280 280 280 280
293 294 294 292 290 291 292 292 293 294 293 295 296 296 295 294 293 294 292 291 291 291 290 288 287 288 287 285 284 284 283 283 283 283 282 281 281 281
296 297 297 296 294 293 291 292 293 293 293 294 295 296 295 295 295 293 291 291 291 291 290 289 288 288 286 285 284 285 285 285 284 284 283 282 282 281
296 298 297 296 296 295 294 294 294 293 294 295 296 296 296 296 295 293 292 290 291 290 290 290 289 287 286 286 286 287 286 285 284 283 283 284 283 282
297 299 300 300 298 297 296 295 294 295 295 295 296 296 296 297 295 294 292 291 292 293 292 291 289 288 288 287 286 287 287 287 286 286 285 285 284 283
297 299 300 301 300 298 295 296 296 297 296 295 295 296 297 297 295 295 294 293 294 293 292 291 290 289 288 288 288 288 289 288 288 287 287 286 285 284
296 299 300 300 301 300 298 299 299 298 297 297 297 297 297 297 295 295 294 295 295 294 292 292 292 291 291 291 291 290 290 290 290 289 288 287 287 287
295 296 298 300 300 300 300 300 300 299 299 299 299 299 299 298 297 295 294 294 293 293 292 291 292 293 293 293 292 292 292 292 291 291 290 289 289 288
295 296 298 299 301 302 302 301 300 300 300 300 300 300 299 299 298 296 296 296 296 296 295 294 294 294 294 294 293 293 293 293 293 292 291 290 289 289
296 296 297 298 301 302 302 302 303 302 301 301 302 301 301 301 300 299 299 299 299 299 297 296 295 294 294 295 294 294 294 294 293 293 292 291 289 289
296 296 297 298 300 301 303 303 303 302 301 302 303 304 303 302 302 302 301 301 301 300 300 299 298 297 296 296 296 296 296 295 295 294 293 291 291 289
297 298 299 301 302 302 303 304 304 303 302 303 304 305 304 303 303 303 303 302 302 302 302 301 301 300 300 299 299 298 297 297 296 295 294 293 292 291
298 299 300 300 301 302 303 303 303 303 302 303 304 305 304 303 303 303 303 303 303 303 303 302 302 302 302 301 300 300 299 299 298 296 295 294 293 293
300 300 300 301 301 302 303 303 303 303 302 303 304 303 303 303 303 303 303 304 304 303 302 302 302 302 302 301 301 301 300 300 299 298 297 297 296 295
302 303 303 303 303 302 303 303 303 303 303 303 304 303 303 303 303 304 305 304 304 303 303 303 303 303 302 301 301 301 301 301 301 300 299 298 297 296
Height
5881 5881 5882 5881 5881 5881 5881 5881 5881 5880 5880 5879 5879 5878 5877 5876 5876 5875 5875 5874 5873 5872 5872 5871 5870 5869 5868 5868 5867 5866 5865 5864 5864 5863 5862 5862 5861 5861
5879 5879 5879 5879 5878 5878 5877 5877 5877 5877 5876 5876 5875 5874 5873 5872 5872 5871 5871 5870 5869 5868 5867 5867 5866 5865 5864 5863 5862 5861 5860 5859 5859 5858 5857 5856 5856 5855
5876 5876 5876 5875 5875 5875 5874 5874 5873 5873 5872 5872 5871 5870 5869 5868 5867 5867 5866 5865 5864 5864 5863 5862 5861 5860 5859 5858 5857 5856 5855 5854 5853 5852 5851 5850 5850 5849
5873 5873 5872 5872 5872 5871 5871 5870 5869 5869 5868 5867 5866 5866 5865 5863 5863 5862 5861 5860 5859 5859 5857 5856 5855 5854 5853 5852 5851 5849 5848 5847 5846 5846 5845 5844 5843 5842
5869 5869 5868 5868 5868 5867 5867 5866 5865 5864 5864 5863 5862 5861 5860 5859 5858 5857 5856 5855 5854 5853 5852 5850 5849 5848 5847 5845 5844 5843 5841 5840 5839 5838 5837 5836 5835 5834
5866 5865 5864 5864 5864 5863 5862 5861 5861 5860 5859 5858 5857 5856 5855 5854 5853 5851 5850 5849 5848 5847 5846 5844 5843 5841 5840 5838 5837 5835 5834 5832 5831 5830 5829 5828 5827 5825
5862 5861 5860 5860 5859 5859 5858 5857 5856 5855 5854 5853 5852 5851 5850 5848 5847 5845 5844 5842 5841 5840 5838 5837 5836 5834 5832 5830 5829 5827 5825 5824 5823 5821 5820 5818 5817 5816
5857 5856 5856 5855 5855 5854 5853 5852 5851 5849 5848 5847 5846 5845 5844 5842 5840 5838 5837 5835 5834 5833 5830 5829 5827 5825 5824 5822 5820 5818 5816 5814 5813 5811 5810 5808 5807 5805
5853 5852 5851 5850 5849 5848 5847 5846 5845 5843 5842 5841 5840 5838 5837 5835 5833 5831 5829 5827 5826 5824 5822 5820 5817 5816 5814 5812 5810 5808 5806 5804 5802 5800 5799 5797 5795 5793
5848 5847 5846 5844 5843 5842 5841 5840 5838 5837 5836 5834 5833 5831 5829 5827 5825 5823 5821 5819 5817 5815 5813 5811 5808 5806 5804 5802 5800 5798 5796 5794 5792 5789 5787 5785 5783 5781
5843 5842 5841 5839 5838 5836 5835 5834 5832 5830 5828 5827 5825 5823 5821 5819 5817 5815 5812 5810 5808 5806 5803 5801 5799 5796 5794 5792 5789 5787 5785 5782 5780 5778 5775 5773 5770 5768
5839 5837 5835 5833 5832 5830 5828 5827 5825 5823 5821 5820 5818 5815 5813 5811 5808 5806 5804 5801 5798 5796 5793 5790 5788 5786 5784 5781 5778 5776 5773 5771 5768 5766 5763 5760 5757 5755
5833 5831 5829 5827 5825 5823 5821 5820 5818 5816 5814 5812 5810 5808 5805 5802 5800 5797 5794 5791 5788 5785 5783 5780 5778 5775 5773 5771 5768 5764 5762 5759 5756 5753 5750 5746 5743 5741
5827 5825 5823 5821 5818 5816 5814 5812 5810 5808 5806 5804 5802 5799 5797 5794 5791 5787 5784 5781 5778 5775 5772 5769 5766 5764 5761 5759 5756 5753 5749 5746 5743 5740 5736 5733 5730 5727
5821 5819 5817 5815 5812 5810 5808 5806 5803 5801 5798 5796 5793 5790 5787 5784 5781 5778 5774 5771 5768 5764 5761 5758 5755 5752 5749 5746 5743 5740 5737 5733 5730 5726 5723 5719 5716 5713
5815 5813 5811 5808 5806 5803 5801 5798 5796 5793 5790 5787 5784 5781 5777 5774 5771 5767 5764 5761 5757 5754 5750 5747 5744 5741 5737 5734 5730 5727 5723 5720 5716 5712 5708 5705 5702 5699
5808 5806 5804 5801 5799 5796 5793 5790 5787 5784 5781 5778 5774 5771 5768 5764 5761 5757 5753 5750 5747 5743 5740 5736 5732 5728 5725 5721 5717 5714 5710 5706 5702 5698 5695 5691 5688 5684
5801 5799 5796 5794 5791 5788 5785 5782 5779 5775 5772 5769 5765 5762 5759 5755 5751 5747 5743 5739 5736 5732 5728 5724 5720 5716 5712 5708 5704 5700 5697 5693 5689 5685 5681 5677 5674 5671
5793 5791 5788 5786 5783 5780 5777 5774 5770 5767 5764 5760 5757 5753 5749 5745 5741 5737 5733 5729 5725 5721 5717 5713 5708 5704 5700 5697 5692 5687 5683 5679 5675 5672 5667 5663 5660 5656
5786 5783 5781 5778 5775 5772 5769 5766 5762 5758 5755 5751 5748 5744 5740 5735 5731 5727 5723 5718 5714 5710 5706 5702 5697 5692 5688 5684 5680 5676 5670 5666 5662 5658 5654 5650 5646 5642
5778 5776 5773 5770 5767 5764 5761 5757 5754 5750 5746 5742 5738 5734 5730 5726 5721 5717 5713 5708 5704 5699 5695 5690 5686 5681 5676 5672 5667 5663 5658 5653 5648 5644 5640 5636 5632 5628
5771 5768 5765 5762 5759 5756 5752 5749 5745 5741 5737 5733 5729 5725 5720 5716 5711 5707 5702 5698 5693 5688 5683 5679 5674 5669 5665 5660 5655 5650 5646 5641 5636 5630 5626 5621 5617 5613
5764 5761 5757 5754 5750 5747 5743 5740 5736 5732 5728 5724 5719 5715 5710 5705 5700 5695 5691 5686 5681 5677 5672 5667 5662 5657 5652 5647 5642 5637 5633 5628 5623 5619 5614 5609 5604 5599